Time,TemperatureF,DewpointF,PressureIn,WindDirection,WindDirectionDegrees,WindSpeedMPH,WindSpeedGustMPH,Humidity,HourlyPrecipIn,Conditions,Clouds,dailyrainin,SolarRadiationWatts/m^2,SoftwareType,DateUTC
2013-03-07 00:01:00,42.4,41.3,29.88,SE,138,12.7,12.7,96,0.03,-RA,,0.00,0.0,WeatherDisplay:10.37,2013-03-07 08:01:00,
2013-03-07 00:07:00,42.4,41.3,29.88,SE,128,7.0,7.0,96,0.03,-RA,,0.00,0.0,WeatherDisplay:10.37,2013-03-07 08:07:00,
2013-03-07 00:12:00,42.3,41.2,29.88,SE,137,9.2,9.2,96,0.03,-RA,,0.01,0.0,WeatherDisplay:10.37,2013-03-07 08:12:00,
2013-03-07 00:17:00,42.1,41.0,29.88,SE,125,9.2,9.2,96,0.03,-RA,,0.01,0.0,WeatherDisplay:10.37,2013-03-07 08:17:00,
2013-03-07 00:22:00,42.1,41.0,29.89,SE,139,6.0,6.0,96,0.03,-RA,,0.02,0.0,WeatherDisplay:10.37,2013-03-07 08:22:00,
2013-03-07 00:27:00,42.1,41.0,29.89,ESE,123,8.1,8.1,96,0.03,-RA,,0.02,0.0,WeatherDisplay:10.37,2013-03-07 08:27:00,
2013-03-07 00:32:00,41.9,40.8,29.89,SE,137,5.0,5.0,96,0.04,-RA,,0.02,0.0,WeatherDisplay:10.37,2013-03-07 08:32:00,
2013-03-07 00:37:00,41.9,40.8,29.89,SE,133,11.5,11.5,96,0.03,-RA,,0.02,0.0,WeatherDisplay:10.37,2013-03-07 08:37:00,
2013-03-07 00:42:00,42.0,41.2,29.89,SE,126,5.8,5.8,97,0.04,-RA,,0.03,0.0,WeatherDisplay:10.37,2013-03-07 08:42:00,
2013-03-07 00:47:00,41.9,41.1,29.90,SE,136,6.9,6.9,97,0.04,-RA,,0.04,0.0,WeatherDisplay:10.37,2013-03-07 08:47:00,
2013-03-07 00:52:00,42.0,41.2,29.90,SE,142,9.2,9.2,97,0.04,-RA,,0.04,0.0,WeatherDisplay:10.37,2013-03-07 08:52:00,
2013-03-07 00:57:00,42.0,40.9,29.90,SE,136,6.9,6.9,96,0.04,-RA,,0.04,0.0,WeatherDisplay:10.37,2013-03-07 08:57:00,
2013-03-07 01:02:00,42.0,40.9,29.90,SSE,149,5.8,5.8,96,0.04,-RA,,0.04,0.0,WeatherDisplay:10.37,2013-03-07 09:02:00,
2013-03-07 01:07:00,42.0,40.9,29.90,SE,144,6.9,6.9,96,0.04,-RA,,0.04,0.0,WeatherDisplay:10.37,2013-03-07 09:07:00,
2013-03-07 01:12:00,42.0,40.9,29.91,SE,142,10.4,10.4,96,0.03,-RA,,0.04,0.0,WeatherDisplay:10.37,2013-03-07 09:12:00,
2013-03-07 01:17:00,42.1,41.0,29.91,ESE,118,9.2,9.2,96,0.04,-RA,,0.05,0.0,WeatherDisplay:10.37,2013-03-07 09:17:00,
2013-03-07 01:22:00,42.1,41.0,29.91,ESE,121,8.1,8.1,96,0.03,-RA,,0.05,0.0,WeatherDisplay:10.37,2013-03-07 09:22:00,
2013-03-07 01:27:00,42.1,41.0,29.91,SE,138,8.1,8.1,96,0.03,-RA,,0.06,0.0,WeatherDisplay:10.37,2013-03-07 09:27:00,
2013-03-07 01:32:00,42.1,41.0,29.92,SE,140,4.6,4.6,96,0.03,-RA,,0.06,0.0,WeatherDisplay:10.37,2013-03-07 09:32:00,
2013-03-07 01:37:00,42.0,40.9,29.92,ESE,118,6.9,6.9,96,0.03,-RA,,0.06,0.0,WeatherDisplay:10.37,2013-03-07 09:37:00,
2013-03-07 01:42:00,42.0,40.9,29.92,ESE,121,6.9,6.9,96,0.02,-RA,,0.06,0.0,WeatherDisplay:10.37,2013-03-07 09:42:00,
2013-03-07 01:47:00,42.0,40.9,29.92,SE,130,11.5,11.5,96,0.02,-RA,,0.06,0.0,WeatherDisplay:10.37,2013-03-07 09:47:00,
2013-03-07 01:52:00,41.9,40.8,29.92,SSE,147,10.4,10.4,96,0.02,-RA,,0.06,0.0,WeatherDisplay:10.37,2013-03-07 09:52:00,
2013-03-07 01:57:00,41.9,40.8,29.93,SE,144,10.4,10.4,96,0.03,-RA,,0.07,0.0,WeatherDisplay:10.37,2013-03-07 09:57:00,
2013-03-07 02:02:00,41.9,40.8,29.93,SE,130,9.2,9.2,96,0.03,-RA,,0.07,0.0,WeatherDisplay:10.37,2013-03-07 10:02:00,
2013-03-07 02:07:00,41.9,40.8,29.93,East,101,4.6,4.6,96,0.03,-RA,,0.07,0.0,WeatherDisplay:10.37,2013-03-07 10:07:00,
2013-03-07 02:12:00,41.8,40.7,29.93,SSE,153,11.5,11.5,96,0.03,-RA,,0.07,0.0,WeatherDisplay:10.37,2013-03-07 10:12:00,
2013-03-07 02:17:00,41.8,40.7,29.93,ESE,103,3.5,3.5,96,0.03,-RA,,0.08,0.0,WeatherDisplay:10.37,2013-03-07 10:17:00,
2013-03-07 02:22:00,41.7,40.6,29.94,ESE,119,3.5,3.7,96,0.03,-RA,,0.08,0.0,WeatherDisplay:10.37,2013-03-07 10:22:00,
2013-03-07 02:27:00,41.6,40.8,29.94,SE,140,4.6,4.6,97,0.02,-RA,,0.08,0.0,WeatherDisplay:10.37,2013-03-07 10:27:00,
2013-03-07 02:32:00,41.6,40.5,29.93,East,100,4.6,4.6,96,0.02,-RA,,0.08,0.0,WeatherDisplay:10.37,2013-03-07 10:32:00,
2013-03-07 02:37:00,41.5,40.4,29.94,ESE,107,5.8,5.8,96,0.04,-RA,,0.09,0.0,WeatherDisplay:10.37,2013-03-07 10:37:00,
2013-03-07 02:42:00,41.5,40.4,29.94,SE,125,4.0,4.0,96,0.04,-RA,,0.09,0.0,WeatherDisplay:10.37,2013-03-07 10:42:00,
2013-03-07 02:48:00,41.5,40.4,29.94,ESE,117,8.1,8.1,96,0.03,-RA,,0.09,0.0,WeatherDisplay:10.37,2013-03-07 10:48:00,
2013-03-07 02:53:00,41.4,40.3,29.94,ESE,121,4.6,4.6,96,0.03,-RA,,0.09,0.0,WeatherDisplay:10.37,2013-03-07 10:53:00,
2013-03-07 02:58:00,41.4,40.3,29.94,ESE,106,5.8,5.8,96,0.02,-RA,,0.09,0.0,WeatherDisplay:10.37,2013-03-07 10:58:00,
2013-03-07 03:03:00,41.4,40.3,29.94,East,96,2.3,2.3,96,0.03,-RA,,0.10,0.0,WeatherDisplay:10.37,2013-03-07 11:03:00,
2013-03-07 03:08:00,41.3,40.2,29.94,ESE,115,2.3,2.3,96,0.03,-RA,,0.10,0.0,WeatherDisplay:10.37,2013-03-07 11:08:00,
2013-03-07 03:13:00,41.3,40.5,29.95,SSE,163,5.0,5.0,97,0.04,-RA,,0.11,0.0,WeatherDisplay:10.37,2013-03-07 11:13:00,
2013-03-07 03:18:00,41.2,40.4,29.95,East,83,3.5,3.5,97,0.03,-RA,,0.11,0.0,WeatherDisplay:10.37,2013-03-07 11:18:00,
2013-03-07 03:23:00,41.2,40.4,29.95,East,88,5.0,5.0,97,0.03,-RA,,0.12,0.0,WeatherDisplay:10.37,2013-03-07 11:23:00,
2013-03-07 03:28:00,41.1,40.3,29.95,SE,127,6.0,6.0,97,0.04,-RA,,0.12,0.0,WeatherDisplay:10.37,2013-03-07 11:28:00,
2013-03-07 03:33:00,41.1,40.3,29.95,ESE,103,2.3,2.3,97,0.03,-RA,,0.13,0.0,WeatherDisplay:10.37,2013-03-07 11:33:00,
2013-03-07 03:38:00,41.0,40.2,29.95,East,91,2.3,2.3,97,0.03,-RA,,0.13,0.0,WeatherDisplay:10.37,2013-03-07 11:38:00,
2013-03-07 03:43:00,40.9,40.1,29.95,East,84,3.5,3.5,97,0.03,-RA,,0.13,0.0,WeatherDisplay:10.37,2013-03-07 11:43:00,
2013-03-07 03:48:00,40.9,40.1,29.95,East,83,3.5,3.5,97,0.04,-RA,,0.13,0.0,WeatherDisplay:10.37,2013-03-07 11:48:00,
2013-03-07 03:53:00,40.9,40.1,29.95,East,82,3.0,3.0,97,0.04,-RA,,0.14,0.0,WeatherDisplay:10.37,2013-03-07 11:53:00,
2013-03-07 03:58:00,40.8,40.0,29.96,ENE,70,3.5,3.5,97,0.05,-RA,,0.14,0.0,WeatherDisplay:10.37,2013-03-07 11:58:00,
2013-03-07 04:03:00,40.7,39.9,29.96,ENE,69,2.3,0.0,97,0.04,-RA,,0.14,0.0,WeatherDisplay:10.37,2013-03-07 12:03:00,
2013-03-07 04:08:00,40.7,39.9,29.96,ENE,68,3.5,3.5,97,0.05,-RA,,0.15,0.0,WeatherDisplay:10.37,2013-03-07 12:08:00,
2013-03-07 04:13:00,40.7,39.9,29.96,ENE,71,3.5,3.5,97,0.04,-RA,,0.15,0.0,WeatherDisplay:10.37,2013-03-07 12:13:00,
2013-03-07 04:18:00,40.7,39.9,29.96,ENE,78,4.6,4.6,97,0.04,-RA,,0.15,0.0,WeatherDisplay:10.37,2013-03-07 12:18:00,
2013-03-07 04:23:00,40.6,39.8,29.96,East,86,3.5,3.5,97,0.05,-RA,,0.16,0.0,WeatherDisplay:10.37,2013-03-07 12:23:00,
2013-03-07 04:28:00,40.6,39.8,29.96,East,79,5.0,5.0,97,0.04,-RA,,0.16,0.0,WeatherDisplay:10.37,2013-03-07 12:28:00,
2013-03-07 04:33:00,40.6,39.8,29.96,East,90,5.8,5.8,97,0.03,-RA,,0.16,0.0,WeatherDisplay:10.37,2013-03-07 12:33:00,
2013-03-07 04:38:00,40.6,39.8,29.96,East,91,6.9,6.9,97,0.03,-RA,,0.16,0.0,WeatherDisplay:10.37,2013-03-07 12:38:00,
2013-03-07 04:43:00,40.6,39.8,29.97,East,91,4.6,4.6,97,0.03,-RA,,0.17,0.0,WeatherDisplay:10.37,2013-03-07 12:43:00,
2013-03-07 04:48:00,40.6,39.8,29.97,East,86,3.5,3.5,97,0.03,-RA,,0.17,0.0,WeatherDisplay:10.37,2013-03-07 12:48:00,
2013-03-07 04:53:00,40.6,39.8,29.97,ENE,64,4.6,4.6,97,0.03,-RA,,0.17,0.0,WeatherDisplay:10.37,2013-03-07 12:53:00,
2013-03-07 04:58:00,40.6,39.8,29.97,East,91,5.8,5.8,97,0.03,-RA,,0.17,0.0,WeatherDisplay:10.37,2013-03-07 12:58:00,
2013-03-07 05:03:00,40.6,39.8,29.97,ENE,73,3.5,3.5,97,0.03,-RA,,0.17,0.0,WeatherDisplay:10.37,2013-03-07 13:03:00,
2013-03-07 05:08:00,40.6,39.8,29.98,ENE,78,4.6,4.6,97,0.02,-RA,,0.17,0.0,WeatherDisplay:10.37,2013-03-07 13:08:00,
2013-03-07 05:13:00,40.6,40.1,29.98,East,93,5.0,5.0,98,0.03,-RA,,0.18,0.0,WeatherDisplay:10.37,2013-03-07 13:13:00,
2013-03-07 05:18:00,40.5,39.7,29.98,East,90,5.8,5.8,97,0.04,-RA,,0.19,0.0,WeatherDisplay:10.37,2013-03-07 13:18:00,
2013-03-07 05:23:00,40.6,40.1,29.98,ENE,71,4.6,4.6,98,0.03,-RA,,0.19,0.0,WeatherDisplay:10.37,2013-03-07 13:23:00,
2013-03-07 05:28:00,40.6,40.1,29.98,ENE,74,4.6,4.6,98,0.03,-RA,,0.19,0.0,WeatherDisplay:10.37,2013-03-07 13:28:00,
2013-03-07 05:33:00,40.6,40.1,29.98,ENE,78,4.6,4.6,98,0.04,-RA,,0.20,0.0,WeatherDisplay:10.37,2013-03-07 13:33:00,
2013-03-07 05:38:00,40.6,40.1,29.99,East,82,5.8,5.8,98,0.04,-RA,,0.20,0.0,WeatherDisplay:10.37,2013-03-07 13:38:00,
2013-03-07 05:43:00,40.6,40.1,29.99,ENE,78,4.6,4.6,98,0.05,-RA,,0.20,0.0,WeatherDisplay:10.37,2013-03-07 13:43:00,
2013-03-07 05:48:00,40.6,40.1,29.99,ESE,104,3.5,3.5,98,0.04,-RA,,0.20,0.0,WeatherDisplay:10.37,2013-03-07 13:48:00,
2013-03-07 05:53:00,40.6,40.1,29.99,ENE,75,4.6,4.6,98,0.04,-RA,,0.20,0.0,WeatherDisplay:10.37,2013-03-07 13:53:00,
2013-03-07 05:58:00,40.5,40.0,29.99,East,90,5.0,5.0,98,0.03,-RA,,0.20,0.0,WeatherDisplay:10.37,2013-03-07 13:58:00,
2013-03-07 06:04:00,40.5,40.0,29.99,East,83,3.5,3.5,98,0.04,-RA,,0.21,0.0,WeatherDisplay:10.37,2013-03-07 14:04:00,
2013-03-07 06:09:00,40.5,40.0,29.99,East,91,3.5,3.5,98,0.04,-RA,,0.21,0.0,WeatherDisplay:10.37,2013-03-07 14:09:00,
2013-03-07 06:14:00,40.5,40.0,29.99,East,82,3.5,3.5,98,0.03,-RA,,0.21,0.0,WeatherDisplay:10.37,2013-03-07 14:14:00,
2013-03-07 06:19:00,40.5,40.0,30.00,East,79,3.5,3.5,98,0.02,-RA,,0.21,0.0,WeatherDisplay:10.37,2013-03-07 14:19:00,
2013-03-07 06:24:00,40.4,39.9,30.00,East,82,4.6,4.6,98,0.02,-RA,,0.21,0.0,WeatherDisplay:10.37,2013-03-07 14:24:00,
2013-03-07 06:29:00,40.4,39.6,30.00,East,80,6.9,6.9,97,0.03,-RA,,0.22,0.0,WeatherDisplay:10.37,2013-03-07 14:29:00,
2013-03-07 06:34:00,40.3,39.5,30.00,ENE,78,4.6,4.6,97,0.02,-RA,,0.22,0.0,WeatherDisplay:10.37,2013-03-07 14:34:00,
2013-03-07 06:39:00,40.2,39.4,30.00,East,86,5.8,5.8,97,0.02,-RA,,0.22,0.0,WeatherDisplay:10.37,2013-03-07 14:39:00,
2013-03-07 06:44:00,40.2,39.4,30.00,East,87,3.5,3.5,97,0.02,-RA,,0.22,0.0,WeatherDisplay:10.37,2013-03-07 14:44:00,
2013-03-07 06:49:00,40.1,39.3,30.01,East,86,6.0,6.0,97,0.02,-RA,,0.22,0.0,WeatherDisplay:10.37,2013-03-07 14:49:00,
2013-03-07 06:54:00,40.1,39.3,30.01,East,85,3.5,3.5,97,0.02,-RA,,0.22,5.0,WeatherDisplay:10.37,2013-03-07 14:54:00,
2013-03-07 06:59:00,40.1,39.3,30.01,ENE,78,6.0,6.0,97,0.02,-RA,,0.22,5.0,WeatherDisplay:10.37,2013-03-07 14:59:00,
2013-03-07 07:04:00,40.1,39.6,30.01,East,94,5.0,5.0,98,0.01,-RA,,0.22,7.0,WeatherDisplay:10.37,2013-03-07 15:04:00,
2013-03-07 07:09:00,40.1,39.6,30.01,ENE,67,3.5,3.5,98,0.01,-RA,,0.22,12.0,WeatherDisplay:10.37,2013-03-07 15:09:00,
2013-03-07 07:15:00,40.1,39.6,30.01,ESE,105,4.6,4.6,98,0.01,-RA,,0.22,16.0,WeatherDisplay:10.37,2013-03-07 15:15:00,
2013-03-07 07:20:00,40.1,39.3,30.01,East,81,3.0,9.0,97,0.01,-RA,,0.22,19.0,WeatherDisplay:10.37,2013-03-07 15:20:00,
2013-03-07 07:25:00,40.1,39.3,30.02,East,96,6.0,6.0,97,0.01,-RA,,0.22,23.0,WeatherDisplay:10.37,2013-03-07 15:25:00,
2013-03-07 07:30:00,40.2,39.4,30.02,East,88,2.0,7.0,97,0.00,-RA,,0.22,23.0,WeatherDisplay:10.37,2013-03-07 15:30:00,
2013-03-07 07:35:00,40.2,39.4,30.02,East,88,5.8,5.8,97,0.00,-RA,,0.22,25.0,WeatherDisplay:10.37,2013-03-07 15:35:00,
2013-03-07 07:40:00,40.2,39.4,30.02,East,84,5.8,5.8,97,0.00,-RA,,0.22,28.0,WeatherDisplay:10.37,2013-03-07 15:40:00,
2013-03-07 07:45:00,40.2,39.4,30.02,ENE,74,4.6,4.6,97,0.00,-RA,,0.22,30.0,WeatherDisplay:10.37,2013-03-07 15:45:00,
2013-03-07 07:50:00,40.3,39.5,30.02,ESE,103,4.6,4.6,97,0.00,-RA,,0.22,32.0,WeatherDisplay:10.37,2013-03-07 15:50:00,
2013-03-07 07:55:00,40.3,39.5,30.02,East,95,5.0,5.0,97,0.00,-RA,,0.22,32.0,WeatherDisplay:10.37,2013-03-07 15:55:00,
2013-03-07 08:00:00,40.3,39.5,30.03,East,82,6.9,6.9,97,0.00,-RA,,0.22,37.0,WeatherDisplay:10.37,2013-03-07 16:00:00,
2013-03-07 08:05:00,40.4,39.6,30.03,East,86,6.9,6.9,97,0.00,-RA,,0.22,42.0,WeatherDisplay:10.37,2013-03-07 16:05:00,
2013-03-07 08:10:00,40.4,39.6,30.03,East,96,6.9,6.9,97,0.00,-RA,,0.22,46.0,WeatherDisplay:10.37,2013-03-07 16:10:00,
2013-03-07 08:15:00,40.5,39.7,30.03,East,84,4.6,4.6,97,0.00,-RA,,0.22,51.0,WeatherDisplay:10.37,2013-03-07 16:15:00,
2013-03-07 08:20:00,40.6,39.8,30.03,East,83,4.6,4.6,97,0.00,-RA,,0.22,58.0,WeatherDisplay:10.37,2013-03-07 16:20:00,
2013-03-07 08:25:00,40.7,39.9,30.03,ENE,63,6.9,6.9,97,0.00,-RA,,0.22,65.0,WeatherDisplay:10.37,2013-03-07 16:25:00,
2013-03-07 08:30:00,40.8,39.7,30.04,East,84,8.1,8.1,96,0.00,-RA,,0.22,70.0,WeatherDisplay:10.37,2013-03-07 16:30:00,
2013-03-07 08:35:00,40.9,39.8,30.04,ENE,69,6.9,6.9,96,0.00,-RA,,0.22,65.0,WeatherDisplay:10.37,2013-03-07 16:35:00,
2013-03-07 08:40:00,40.9,39.8,30.04,East,80,8.1,8.1,96,0.00,-RA,,0.22,62.0,WeatherDisplay:10.37,2013-03-07 16:40:00,
2013-03-07 08:45:00,41.0,39.9,30.04,ENE,75,5.8,5.8,96,0.00,-RA,,0.22,54.0,WeatherDisplay:10.37,2013-03-07 16:45:00,
2013-03-07 08:50:00,41.0,39.9,30.04,East,85,5.8,5.8,96,0.00,-RA,,0.22,56.0,WeatherDisplay:10.37,2013-03-07 16:50:00,
2013-03-07 08:55:00,41.1,40.0,30.04,East,79,5.8,5.8,96,0.00,-RA,,0.22,49.0,WeatherDisplay:10.37,2013-03-07 16:55:00,
2013-03-07 09:00:00,41.1,40.0,30.04,ESE,110,4.6,4.6,96,0.00,-RA,,0.22,56.0,WeatherDisplay:10.37,2013-03-07 17:00:00,
2013-03-07 09:05:00,41.2,40.1,30.05,ENE,67,4.0,4.0,96,0.00,OVC,,0.22,65.0,WeatherDisplay:10.37,2013-03-07 17:05:00,
2013-03-07 09:10:00,41.2,39.9,30.05,East,82,6.9,6.9,95,0.01,RA,,0.23,63.0,WeatherDisplay:10.37,2013-03-07 17:10:00,
2013-03-07 09:15:00,41.3,40.0,30.05,East,92,6.0,6.0,95,0.01,RA,,0.23,72.0,WeatherDisplay:10.37,2013-03-07 17:15:00,
2013-03-07 09:20:00,41.3,40.2,30.05,East,80,6.0,6.0,96,0.01,RA,,0.23,65.0,WeatherDisplay:10.37,2013-03-07 17:20:00,
2013-03-07 09:25:00,41.4,40.1,30.05,East,79,5.0,5.0,95,0.01,RA,,0.23,62.0,WeatherDisplay:10.37,2013-03-07 17:25:00,
2013-03-07 09:30:00,41.4,40.1,30.05,ESE,106,4.6,4.6,95,0.01,RA,,0.23,69.0,WeatherDisplay:10.37,2013-03-07 17:30:00,
2013-03-07 09:35:00,41.5,40.2,30.05,NE,44,5.8,5.8,95,0.01,RA,,0.23,67.0,WeatherDisplay:10.37,2013-03-07 17:35:00,
2013-03-07 09:40:00,41.5,40.2,30.05,ENE,76,7.0,7.0,95,0.01,RA,,0.23,56.0,WeatherDisplay:10.37,2013-03-07 17:40:00,
2013-03-07 09:45:00,41.5,40.2,30.06,East,86,6.9,6.9,95,0.01,RA,,0.23,54.0,WeatherDisplay:10.37,2013-03-07 17:45:00,
2013-03-07 09:50:00,41.6,40.3,30.06,East,89,5.0,5.0,95,0.01,OVC,,0.23,60.0,WeatherDisplay:10.37,2013-03-07 17:50:00,
2013-03-07 09:55:00,41.5,40.2,30.06,East,82,8.1,8.1,95,0.01,OVC,,0.23,69.0,WeatherDisplay:10.37,2013-03-07 17:55:00,
2013-03-07 10:00:00,41.6,40.3,30.06,ENE,75,5.8,5.8,95,0.01,OVC,,0.23,70.0,WeatherDisplay:10.37,2013-03-07 18:00:00,
2013-03-07 10:05:00,41.6,40.3,30.06,East,96,5.8,5.8,95,0.01,-RA,,0.23,72.0,WeatherDisplay:10.37,2013-03-07 18:05:00,
2013-03-07 10:10:00,41.7,40.4,30.07,ENE,78,6.0,6.0,95,0.00,-RA,,0.23,81.0,WeatherDisplay:10.37,2013-03-07 18:10:00,
2013-03-07 10:15:00,41.8,40.7,30.07,ESE,115,4.6,4.6,96,0.00,-RA,,0.23,77.0,WeatherDisplay:10.37,2013-03-07 18:15:00,
2013-03-07 10:20:00,41.9,40.6,30.07,East,84,8.1,8.1,95,0.00,-RA,,0.23,76.0,WeatherDisplay:10.37,2013-03-07 18:20:00,
2013-03-07 10:25:00,41.9,40.6,30.07,ENE,74,10.4,10.4,95,0.00,-RA,,0.23,81.0,WeatherDisplay:10.37,2013-03-07 18:25:00,
2013-03-07 10:30:00,42.0,40.7,30.07,ESE,102,6.0,6.0,95,0.00,-RA,,0.23,74.0,WeatherDisplay:10.37,2013-03-07 18:30:00,
2013-03-07 10:35:00,42.0,40.7,30.07,ENE,76,6.9,6.9,95,0.01,-RA,,0.24,72.0,WeatherDisplay:10.37,2013-03-07 18:35:00,
2013-03-07 10:40:00,42.1,40.8,30.07,ENE,74,5.0,5.0,95,0.01,-RA,,0.24,76.0,WeatherDisplay:10.37,2013-03-07 18:40:00,
2013-03-07 10:45:00,42.1,40.8,30.07,ENE,70,6.9,6.9,95,0.01,-RA,,0.24,83.0,WeatherDisplay:10.37,2013-03-07 18:45:00,
2013-03-07 10:50:00,42.2,40.9,30.07,ENE,76,5.8,5.8,95,0.01,-RA,,0.24,76.0,WeatherDisplay:10.37,2013-03-07 18:50:00,
2013-03-07 10:55:00,42.1,40.8,30.08,East,88,4.6,4.6,95,0.01,-RA,,0.24,67.0,WeatherDisplay:10.37,2013-03-07 18:55:00,
2013-03-07 11:00:00,42.2,40.9,30.08,ENE,78,6.9,6.9,95,0.01,-RA,,0.24,62.0,WeatherDisplay:10.37,2013-03-07 19:00:00,
2013-03-07 11:05:00,42.2,40.9,30.08,East,84,8.1,8.1,95,0.01,RA,,0.24,72.0,WeatherDisplay:10.37,2013-03-07 19:05:00,
2013-03-07 11:10:00,42.3,41.0,30.08,ESE,113,6.9,6.9,95,0.01,RA,,0.24,70.0,WeatherDisplay:10.37,2013-03-07 19:10:00,
2013-03-07 11:15:00,42.3,41.0,30.08,SE,124,5.8,5.8,95,0.01,OVC,,0.24,67.0,WeatherDisplay:10.37,2013-03-07 19:15:00,
2013-03-07 11:20:00,42.4,41.1,30.08,East,101,5.8,5.8,95,0.01,OVC,,0.24,63.0,WeatherDisplay:10.37,2013-03-07 19:20:00,
2013-03-07 11:25:00,42.4,41.1,30.08,East,85,6.9,6.9,95,0.01,OVC,,0.24,67.0,WeatherDisplay:10.37,2013-03-07 19:25:00,
2013-03-07 11:30:00,42.5,41.2,30.08,East,87,3.5,3.5,95,0.01,OVC,,0.24,67.0,WeatherDisplay:10.37,2013-03-07 19:30:00,
2013-03-07 11:35:00,42.5,41.2,30.08,East,90,6.9,6.9,95,0.00,OVC,,0.24,67.0,WeatherDisplay:10.37,2013-03-07 19:35:00,
2013-03-07 11:41:00,42.6,41.3,30.08,ESE,102,4.6,4.6,95,0.00,OVC,,0.24,90.0,WeatherDisplay:10.37,2013-03-07 19:41:00,
2013-03-07 11:46:00,42.7,41.4,30.08,ENE,75,6.9,6.9,95,0.00,OVC,,0.24,83.0,WeatherDisplay:10.37,2013-03-07 19:46:00,
2013-03-07 11:51:00,42.8,41.7,30.09,East,98,5.0,5.0,96,0.00,OVC,,0.24,76.0,WeatherDisplay:10.37,2013-03-07 19:51:00,
2013-03-07 11:56:00,42.9,41.6,30.08,East,93,4.6,4.6,95,0.00,OVC,,0.24,83.0,WeatherDisplay:10.37,2013-03-07 19:56:00,
2013-03-07 12:01:00,42.9,41.6,30.09,East,87,3.5,3.5,95,0.00,OVC,,0.24,74.0,WeatherDisplay:10.37,2013-03-07 20:01:00,
2013-03-07 12:06:00,42.9,41.6,30.09,East,86,4.6,4.6,95,0.00,-RA,,0.24,76.0,WeatherDisplay:10.37,2013-03-07 20:06:00,
2013-03-07 12:11:00,43.0,41.7,30.09,ESE,109,4.6,4.6,95,0.00,-RA,,0.24,70.0,WeatherDisplay:10.37,2013-03-07 20:11:00,
2013-03-07 12:16:00,43.1,41.8,30.09,SE,138,8.1,8.1,95,0.00,-RA,,0.24,72.0,WeatherDisplay:10.37,2013-03-07 20:16:00,
2013-03-07 12:21:00,43.2,41.9,30.09,SE,129,4.6,4.6,95,0.00,-RA,,0.24,91.0,WeatherDisplay:10.37,2013-03-07 20:21:00,
2013-03-07 12:26:00,43.3,42.0,30.09,ESE,117,4.6,4.6,95,0.00,-RA,,0.24,95.0,WeatherDisplay:10.37,2013-03-07 20:26:00,
2013-03-07 12:31:00,43.4,42.1,30.09,SE,130,4.6,4.6,95,0.00,-RA,,0.24,109.0,WeatherDisplay:10.37,2013-03-07 20:31:00,
2013-03-07 12:36:00,43.4,42.1,30.09,East,91,4.0,4.0,95,0.00,-RA,,0.24,95.0,WeatherDisplay:10.37,2013-03-07 20:36:00,
2013-03-07 12:41:00,43.4,42.1,30.09,SE,125,5.0,5.0,95,0.00,-RA,,0.24,100.0,WeatherDisplay:10.37,2013-03-07 20:41:00,
2013-03-07 12:46:00,43.5,42.2,30.09,ENE,74,4.0,4.0,95,0.00,-RA,,0.24,121.0,WeatherDisplay:10.37,2013-03-07 20:46:00,
2013-03-07 12:51:00,43.6,42.3,30.09,NE,51,3.5,3.5,95,0.00,-RA,,0.24,125.0,WeatherDisplay:10.37,2013-03-07 20:51:00,
2013-03-07 12:56:00,43.6,42.0,30.09,ENE,68,5.8,5.8,94,0.00,-RA,,0.24,135.0,WeatherDisplay:10.37,2013-03-07 20:56:00,
2013-03-07 13:01:00,43.7,42.4,30.09,East,84,6.0,6.0,95,0.00,-RA,,0.24,144.0,WeatherDisplay:10.37,2013-03-07 21:01:00,
2013-03-07 13:06:00,43.9,42.6,30.09,East,87,3.5,3.5,95,0.00,-RA,,0.24,153.0,WeatherDisplay:10.37,2013-03-07 21:06:00,
2013-03-07 13:11:00,44.0,42.7,30.09,SE,136,5.8,5.8,95,0.00,-RA,,0.24,151.0,WeatherDisplay:10.37,2013-03-07 21:11:00,
2013-03-07 13:16:00,44.2,42.6,30.09,SE,129,4.6,4.6,94,0.00,-RA,,0.24,149.0,WeatherDisplay:10.37,2013-03-07 21:16:00,
2013-03-07 13:21:00,44.3,42.7,30.09,SE,126,3.5,3.5,94,0.00,-RA,,0.24,153.0,WeatherDisplay:10.37,2013-03-07 21:21:00,
2013-03-07 13:26:00,44.3,42.4,30.09,SE,137,4.6,4.6,93,0.00,-RA,,0.24,141.0,WeatherDisplay:10.37,2013-03-07 21:26:00,
2013-03-07 13:31:00,44.4,42.5,30.09,ESE,121,4.6,4.6,93,0.00,-RA,,0.24,156.0,WeatherDisplay:10.37,2013-03-07 21:31:00,
2013-03-07 13:36:00,44.5,42.6,30.09,SE,142,0.0,0.0,93,0.00,-RA,,0.24,127.0,WeatherDisplay:10.37,2013-03-07 21:36:00,
2013-03-07 13:41:00,44.6,42.4,30.09,SE,134,5.8,5.8,92,0.00,-RA,,0.24,125.0,WeatherDisplay:10.37,2013-03-07 21:41:00,
2013-03-07 13:46:00,44.6,42.4,30.09,ENE,63,4.6,4.6,92,0.00,-RA,,0.24,141.0,WeatherDisplay:10.37,2013-03-07 21:46:00,
2013-03-07 13:51:00,44.6,42.4,30.09,East,83,3.0,3.0,92,0.00,-RA,,0.24,148.0,WeatherDisplay:10.37,2013-03-07 21:51:00,
2013-03-07 13:56:00,44.7,42.5,30.09,ESE,112,4.6,4.6,92,0.00,-RA,,0.24,165.0,WeatherDisplay:10.37,2013-03-07 21:56:00,
2013-03-07 14:01:00,44.8,42.6,30.09,East,84,4.0,4.0,92,0.00,-RA,,0.24,176.0,WeatherDisplay:10.37,2013-03-07 22:01:00,
2013-03-07 14:07:00,44.9,42.4,30.09,ENE,75,3.5,3.5,91,0.00,-RA,,0.24,179.0,WeatherDisplay:10.37,2013-03-07 22:07:00,
2013-03-07 14:12:00,45.1,42.9,30.09,East,90,3.5,3.5,92,0.00,-RA,,0.24,163.0,WeatherDisplay:10.37,2013-03-07 22:12:00,
2013-03-07 14:17:00,45.1,42.3,30.09,East,83,3.5,3.5,90,0.00,-RA,,0.24,155.0,WeatherDisplay:10.37,2013-03-07 22:17:00,
2013-03-07 14:22:00,45.1,42.3,30.09,East,88,3.5,3.5,90,0.00,-RA,,0.24,155.0,WeatherDisplay:10.37,2013-03-07 22:22:00,
2013-03-07 14:27:00,45.2,42.7,30.09,East,84,3.5,3.5,91,0.00,-RA,,0.24,142.0,WeatherDisplay:10.37,2013-03-07 22:27:00,
2013-03-07 14:32:00,45.3,42.5,30.09,SE,134,0.0,0.0,90,0.00,-RA,,0.24,139.0,WeatherDisplay:10.37,2013-03-07 22:32:00,
2013-03-07 14:37:00,45.5,43.0,30.09,ESE,123,3.5,3.5,91,0.00,-RA,,0.24,128.0,WeatherDisplay:10.37,2013-03-07 22:37:00,
2013-03-07 14:42:00,45.6,42.8,30.09,ESE,122,3.5,3.5,90,0.00,-RA,,0.24,158.0,WeatherDisplay:10.37,2013-03-07 22:42:00,
2013-03-07 14:47:00,45.7,42.9,30.09,ESE,123,2.3,0.0,90,0.00,-RA,,0.24,181.0,WeatherDisplay:10.37,2013-03-07 22:47:00,
2013-03-07 14:52:00,45.7,42.6,30.09,ESE,123,2.3,2.3,89,0.00,-RA,,0.24,171.0,WeatherDisplay:10.37,2013-03-07 22:52:00,
2013-03-07 14:57:00,45.8,43.0,30.09,ESE,122,0.0,0.0,90,0.00,-RA,,0.24,158.0,WeatherDisplay:10.37,2013-03-07 22:57:00,
2013-03-07 15:02:00,45.9,42.8,30.09,ESE,118,3.5,3.5,89,0.00,OVC,,0.24,137.0,WeatherDisplay:10.37,2013-03-07 23:02:00,
2013-03-07 15:07:00,45.9,42.5,30.09,SE,133,4.6,4.6,88,0.00,OVC,,0.24,139.0,WeatherDisplay:10.37,2013-03-07 23:07:00,
2013-03-07 15:12:00,46.0,42.9,30.09,SE,140,4.0,4.0,89,0.00,OVC,,0.24,137.0,WeatherDisplay:10.37,2013-03-07 23:12:00,
2013-03-07 15:17:00,45.9,42.8,30.09,SSE,152,4.6,4.6,89,0.00,OVC,,0.24,128.0,WeatherDisplay:10.37,2013-03-07 23:17:00,
2013-03-07 15:22:00,45.9,42.8,30.09,South,187,5.8,5.8,89,0.00,OVC,,0.24,123.0,WeatherDisplay:10.37,2013-03-07 23:22:00,
2013-03-07 15:27:00,45.8,42.7,30.09,SSE,166,2.3,0.0,89,0.00,OVC,,0.24,114.0,WeatherDisplay:10.37,2013-03-07 23:27:00,
2013-03-07 15:32:00,45.9,42.8,30.09,SSE,149,5.0,5.0,89,0.00,OVC,,0.24,135.0,WeatherDisplay:10.37,2013-03-07 23:32:00,
2013-03-07 15:37:00,45.9,42.5,30.09,SSE,155,4.6,4.6,88,0.00,OVC,,0.24,148.0,WeatherDisplay:10.37,2013-03-07 23:37:00,
2013-03-07 15:42:00,45.9,42.5,30.09,SSE,148,5.8,5.8,88,0.00,OVC,,0.24,144.0,WeatherDisplay:10.37,2013-03-07 23:42:00,
2013-03-07 15:47:00,45.9,42.5,30.09,SSE,162,4.0,4.0,88,0.00,OVC,,0.24,151.0,WeatherDisplay:10.37,2013-03-07 23:47:00,
2013-03-07 15:52:00,46.0,42.6,30.09,SE,128,4.0,4.0,88,0.00,OVC,,0.24,148.0,WeatherDisplay:10.37,2013-03-07 23:52:00,
2013-03-07 15:57:00,46.0,42.6,30.09,South,175,3.5,3.5,88,0.00,OVC,,0.24,141.0,WeatherDisplay:10.37,2013-03-07 23:57:00,
2013-03-07 16:02:00,46.1,42.7,30.09,South,173,5.0,5.0,88,0.00,OVC,,0.24,137.0,WeatherDisplay:10.37,2013-03-08 00:02:00,
2013-03-07 16:07:00,46.1,42.7,30.09,South,188,3.5,3.5,88,0.00,OVC,,0.24,141.0,WeatherDisplay:10.37,2013-03-08 00:07:00,
2013-03-07 16:12:00,46.2,42.8,30.09,SE,130,3.5,3.5,88,0.00,OVC,,0.24,137.0,WeatherDisplay:10.37,2013-03-08 00:12:00,
2013-03-07 16:17:00,46.2,42.8,30.09,SSW,206,0.0,0.0,88,0.00,OVC,,0.24,134.0,WeatherDisplay:10.37,2013-03-08 00:17:00,
2013-03-07 16:22:00,46.3,42.9,30.09,SSW,207,3.5,3.5,88,0.00,OVC,,0.24,123.0,WeatherDisplay:10.37,2013-03-08 00:22:00,
2013-03-07 16:27:00,46.3,42.9,30.09,SSW,206,3.0,3.0,88,0.00,OVC,,0.24,123.0,WeatherDisplay:10.37,2013-03-08 00:27:00,
2013-03-07 16:32:00,46.3,42.9,30.09,South,184,4.0,4.0,88,0.00,OVC,,0.24,120.0,WeatherDisplay:10.37,2013-03-08 00:32:00,
2013-03-07 16:37:00,46.2,42.8,30.09,SSE,164,4.6,4.6,88,0.00,OVC,,0.24,111.0,WeatherDisplay:10.37,2013-03-08 00:37:00,
2013-03-07 16:42:00,46.2,42.8,30.09,SSE,166,4.6,4.6,88,0.00,OVC,,0.24,109.0,WeatherDisplay:10.37,2013-03-08 00:42:00,
2013-03-07 16:47:00,46.2,42.8,30.09,SSE,148,4.6,4.6,88,0.00,OVC,,0.24,109.0,WeatherDisplay:10.37,2013-03-08 00:47:00,
2013-03-07 16:52:00,46.2,42.8,30.09,SSE,148,5.0,5.0,88,0.00,OVC,,0.24,107.0,WeatherDisplay:10.37,2013-03-08 00:52:00,
2013-03-07 16:57:00,46.2,42.8,30.09,South,170,4.0,4.0,88,0.00,OVC,,0.24,102.0,WeatherDisplay:10.37,2013-03-08 00:57:00,
2013-03-07 17:02:00,46.3,42.6,30.09,South,180,3.5,3.5,87,0.00,OVC,,0.24,93.0,WeatherDisplay:10.37,2013-03-08 01:02:00,
2013-03-07 17:07:00,46.3,42.3,30.09,SSE,160,5.0,5.0,86,0.00,OVC,,0.24,86.0,WeatherDisplay:10.37,2013-03-08 01:07:00,
2013-03-07 17:12:00,46.2,41.9,30.09,South,184,4.6,4.6,85,0.00,OVC,,0.24,77.0,WeatherDisplay:10.37,2013-03-08 01:12:00,
2013-03-07 17:17:00,46.2,42.2,30.09,SSE,164,4.0,4.0,86,0.00,OVC,,0.24,72.0,WeatherDisplay:10.37,2013-03-08 01:17:00,
2013-03-07 17:22:00,46.3,42.3,30.09,SSE,164,3.5,3.5,86,0.00,OVC,,0.24,111.0,WeatherDisplay:10.37,2013-03-08 01:22:00,
2013-03-07 17:27:00,46.4,42.4,30.09,SSE,164,1.1,1.1,86,0.00,OVC,,0.24,95.0,WeatherDisplay:10.37,2013-03-08 01:27:00,
2013-03-07 17:32:00,46.5,42.5,30.10,SSE,164,3.5,3.5,86,0.00,OVC,,0.24,49.0,WeatherDisplay:10.37,2013-03-08 01:32:00,
2013-03-07 17:37:00,46.4,42.4,30.10,South,174,4.0,4.0,86,0.00,OVC,,0.24,37.0,WeatherDisplay:10.37,2013-03-08 01:37:00,
2013-03-07 17:42:00,46.3,42.3,30.10,South,174,3.5,3.5,86,0.00,OVC,,0.24,39.0,WeatherDisplay:10.37,2013-03-08 01:42:00,
2013-03-07 17:47:00,46.2,42.5,30.10,South,174,0.0,0.0,87,0.00,OVC,,0.24,21.0,WeatherDisplay:10.37,2013-03-08 01:47:00,
2013-03-07 17:52:00,46.1,42.4,30.10,South,174,2.3,0.0,87,0.00,OVC,,0.24,14.0,WeatherDisplay:10.37,2013-03-08 01:52:00,
2013-03-07 17:57:00,46.0,42.3,30.10,South,173,0.0,0.0,87,0.00,OVC,,0.24,11.0,WeatherDisplay:10.37,2013-03-08 01:57:00,
2013-03-07 18:02:00,45.9,42.2,30.10,South,173,1.1,0.0,87,0.00,BKN,,0.24,5.0,WeatherDisplay:10.37,2013-03-08 02:02:00,
2013-03-07 18:08:00,45.7,42.3,30.10,South,173,0.0,0.0,88,0.00,BKN,,0.24,0.0,WeatherDisplay:10.37,2013-03-08 02:08:00,
2013-03-07 18:13:00,45.5,42.2,30.10,South,173,1.1,1.1,88,0.00,BKN,,0.24,0.0,WeatherDisplay:10.37,2013-03-08 02:13:00,
2013-03-07 18:18:00,45.4,42.1,30.10,South,174,0.0,0.0,88,0.00,BKN,,0.24,0.0,WeatherDisplay:10.37,2013-03-08 02:18:00,
2013-03-07 18:23:00,45.4,42.1,30.10,South,174,0.0,0.0,88,0.00,BKN,,0.24,0.0,WeatherDisplay:10.37,2013-03-08 02:23:00,
2013-03-07 18:28:00,45.3,42.2,30.10,South,174,0.0,0.0,89,0.00,BKN,,0.24,0.0,WeatherDisplay:10.37,2013-03-08 02:28:00,
2013-03-07 18:33:00,45.1,42.1,30.10,South,174,0.0,0.0,89,0.00,BKN,,0.24,0.0,WeatherDisplay:10.37,2013-03-08 02:33:00,
2013-03-07 18:38:00,45.0,42.2,30.10,South,174,0.0,0.0,90,0.00,BKN,,0.24,0.0,WeatherDisplay:10.37,2013-03-08 02:38:00,
2013-03-07 18:43:00,44.9,42.1,30.10,South,174,0.0,0.0,90,0.00,BKN,,0.24,0.0,WeatherDisplay:10.37,2013-03-08 02:43:00,
2013-03-07 18:48:00,44.7,41.9,30.10,South,173,0.0,0.0,90,0.00,BKN,,0.24,0.0,WeatherDisplay:10.37,2013-03-08 02:48:00,
2013-03-07 18:53:00,44.6,42.1,30.10,South,173,0.0,0.0,91,0.00,BKN,,0.24,0.0,WeatherDisplay:10.37,2013-03-08 02:53:00,
2013-03-07 18:58:00,44.5,42.0,30.10,South,174,0.0,0.0,91,0.00,BKN,,0.24,0.0,WeatherDisplay:10.37,2013-03-08 02:58:00,
2013-03-07 19:04:00,44.4,41.9,30.10,South,174,0.0,0.0,91,0.00,BKN,,0.24,0.0,WeatherDisplay:10.37,2013-03-08 03:04:00,
2013-03-07 19:09:00,44.3,42.1,30.10,South,173,0.0,0.0,92,0.00,BKN,,0.24,0.0,WeatherDisplay:10.37,2013-03-08 03:09:00,
2013-03-07 19:14:00,44.3,42.1,30.10,South,174,0.0,0.0,92,0.00,BKN,,0.24,0.0,WeatherDisplay:10.37,2013-03-08 03:14:00,
2013-03-07 19:19:00,44.2,42.0,30.10,South,173,0.0,0.0,92,0.00,BKN,,0.24,0.0,WeatherDisplay:10.37,2013-03-08 03:19:00,
2013-03-07 19:24:00,44.1,41.6,30.10,South,173,0.0,0.0,91,0.00,BKN,,0.24,0.0,WeatherDisplay:10.37,2013-03-08 03:24:00,
2013-03-07 19:29:00,43.8,41.3,30.10,South,174,0.0,0.0,91,0.00,BKN,,0.24,0.0,WeatherDisplay:10.37,2013-03-08 03:29:00,
2013-03-07 19:34:00,43.5,41.3,30.10,South,174,0.0,0.0,92,0.00,BKN,,0.24,0.0,WeatherDisplay:10.37,2013-03-08 03:34:00,
2013-03-07 19:39:00,43.3,40.8,30.10,South,174,0.0,0.0,91,0.00,BKN,,0.24,0.0,WeatherDisplay:10.37,2013-03-08 03:39:00,
2013-03-07 19:44:00,43.0,40.6,30.10,South,173,0.0,0.0,91,0.00,BKN,,0.24,0.0,WeatherDisplay:10.37,2013-03-08 03:44:00,
2013-03-07 19:49:00,42.8,40.9,30.10,South,174,0.0,0.0,93,0.00,BKN,,0.24,0.0,WeatherDisplay:10.37,2013-03-08 03:49:00,
2013-03-07 19:54:00,42.6,41.0,30.11,South,173,0.0,0.0,94,0.00,BKN,,0.24,0.0,WeatherDisplay:10.37,2013-03-08 03:54:00,
2013-03-07 20:00:00,42.5,40.9,30.10,South,174,0.0,0.0,94,0.00,BKN,,0.24,0.0,WeatherDisplay:10.37,2013-03-08 04:00:00,
2013-03-07 20:05:00,42.4,40.8,30.11,South,174,0.0,0.0,94,0.00,SCT,,0.24,0.0,WeatherDisplay:10.37,2013-03-08 04:05:00,
2013-03-07 20:10:00,42.2,40.6,30.11,South,174,0.0,0.0,94,0.00,SCT,,0.24,0.0,WeatherDisplay:10.37,2013-03-08 04:10:00,
2013-03-07 20:15:00,41.8,40.2,30.11,South,174,0.0,0.0,94,0.00,SCT,,0.24,0.0,WeatherDisplay:10.37,2013-03-08 04:15:00,
2013-03-07 20:20:00,41.8,40.5,30.11,South,173,0.0,0.0,95,0.00,SCT,,0.24,0.0,WeatherDisplay:10.37,2013-03-08 04:20:00,
2013-03-07 20:25:00,41.8,40.5,30.11,South,173,0.0,0.0,95,0.00,SCT,,0.24,0.0,WeatherDisplay:10.37,2013-03-08 04:25:00,
2013-03-07 20:30:00,41.5,39.9,30.11,South,174,0.0,0.0,94,0.00,SCT,,0.24,0.0,WeatherDisplay:10.37,2013-03-08 04:30:00,
2013-03-07 20:35:00,41.3,40.0,30.11,South,174,0.0,0.0,95,0.00,SCT,,0.24,0.0,WeatherDisplay:10.37,2013-03-08 04:35:00,
2013-03-07 20:40:00,41.2,39.9,30.11,South,174,0.0,0.0,95,0.00,SCT,,0.24,0.0,WeatherDisplay:10.37,2013-03-08 04:40:00,
2013-03-07 20:45:00,41.2,40.1,30.11,South,174,0.0,0.0,96,0.00,SCT,,0.24,0.0,WeatherDisplay:10.37,2013-03-08 04:45:00,
2013-03-07 20:50:00,40.9,39.6,30.11,South,174,0.0,0.0,95,0.00,SCT,,0.24,0.0,WeatherDisplay:10.37,2013-03-08 04:50:00,
2013-03-07 20:55:00,40.7,39.4,30.11,South,173,0.0,0.0,95,0.00,SCT,,0.24,0.0,WeatherDisplay:10.37,2013-03-08 04:55:00,
2013-03-07 21:00:00,40.6,39.3,30.12,South,174,0.0,1.0,95,0.00,SCT,,0.24,0.0,WeatherDisplay:10.37,2013-03-08 05:00:00,
2013-03-07 21:02:00,40.4,39.1,30.12,South,174,0.0,0.0,95,0.00,FEW,,0.24,0.0,WeatherDisplay:10.37,2013-03-08 05:02:00,
2013-03-07 21:07:00,40.2,39.2,30.12,South,174,0.0,0.0,96,0.00,FEW,,0.24,0.0,WeatherDisplay:10.37,2013-03-08 05:07:00,
2013-03-07 21:12:00,40.1,39.1,30.12,South,173,0.0,0.0,96,0.00,FEW,,0.24,0.0,WeatherDisplay:10.37,2013-03-08 05:12:00,
2013-03-07 21:17:00,40.2,39.2,30.12,South,174,0.0,0.0,96,0.00,FEW,,0.24,0.0,WeatherDisplay:10.37,2013-03-08 05:17:00,
2013-03-07 21:22:00,40.2,39.4,30.12,South,174,0.0,0.0,97,0.00,FEW,,0.24,0.0,WeatherDisplay:10.37,2013-03-08 05:22:00,
2013-03-07 21:27:00,40.2,39.4,30.12,South,174,0.0,0.0,97,0.00,FEW,,0.24,0.0,WeatherDisplay:10.37,2013-03-08 05:27:00,
2013-03-07 21:32:00,40.2,39.2,30.12,South,174,0.0,0.0,96,0.00,FEW,,0.24,0.0,WeatherDisplay:10.37,2013-03-08 05:32:00,
2013-03-07 21:37:00,40.1,39.1,30.12,South,174,0.0,0.0,96,0.00,FEW,,0.24,0.0,WeatherDisplay:10.37,2013-03-08 05:37:00,
2013-03-07 21:42:00,40.1,39.1,30.12,South,173,0.0,0.0,96,0.00,FEW,,0.24,0.0,WeatherDisplay:10.37,2013-03-08 05:42:00,
2013-03-07 21:47:00,39.9,38.9,30.12,South,174,0.0,0.0,96,0.00,FEW,,0.24,0.0,WeatherDisplay:10.37,2013-03-08 05:47:00,
2013-03-07 21:52:00,39.8,38.8,30.12,South,174,0.0,0.0,96,0.00,FEW,,0.24,0.0,WeatherDisplay:10.37,2013-03-08 05:52:00,
2013-03-07 21:57:00,39.7,38.7,30.13,South,174,0.0,0.0,96,0.00,FEW,,0.24,0.0,WeatherDisplay:10.37,2013-03-08 05:57:00,
2013-03-07 22:02:00,39.5,38.5,30.13,South,173,0.0,0.0,96,0.00,FEW,,0.24,0.0,WeatherDisplay:10.37,2013-03-08 06:02:00,
2013-03-07 22:07:00,39.4,38.4,30.13,South,174,0.0,0.0,96,0.00,FEW,,0.24,0.0,WeatherDisplay:10.37,2013-03-08 06:07:00,
2013-03-07 22:12:00,39.2,38.2,30.13,South,174,0.0,0.0,96,0.00,FEW,,0.24,0.0,WeatherDisplay:10.37,2013-03-08 06:12:00,
2013-03-07 22:17:00,39.1,38.1,30.13,South,173,0.0,0.0,96,0.00,FEW,,0.24,0.0,WeatherDisplay:10.37,2013-03-08 06:17:00,
2013-03-07 22:22:00,39.0,38.0,30.13,South,173,0.0,0.0,96,0.00,FEW,,0.24,0.0,WeatherDisplay:10.37,2013-03-08 06:22:00,
2013-03-07 22:27:00,39.1,38.3,30.13,South,174,0.0,0.0,97,0.00,FEW,,0.24,0.0,WeatherDisplay:10.37,2013-03-08 06:27:00,
2013-03-07 22:32:00,39.1,38.3,30.13,South,174,0.0,0.0,97,0.00,FEW,,0.24,0.0,WeatherDisplay:10.37,2013-03-08 06:32:00,
2013-03-07 22:37:00,39.0,38.2,30.13,South,173,0.0,0.0,97,0.00,FEW,,0.24,0.0,WeatherDisplay:10.37,2013-03-08 06:37:00,
2013-03-07 22:42:00,38.9,38.1,30.13,South,174,0.0,0.0,97,0.00,FEW,,0.24,0.0,WeatherDisplay:10.37,2013-03-08 06:42:00,
2013-03-07 22:47:00,38.8,38.0,30.13,South,174,0.0,0.0,97,0.00,FEW,,0.24,0.0,WeatherDisplay:10.37,2013-03-08 06:47:00,
2013-03-07 22:52:00,38.8,38.0,30.13,South,174,0.0,0.0,97,0.00,FEW,,0.24,0.0,WeatherDisplay:10.37,2013-03-08 06:52:00,
2013-03-07 22:57:00,38.8,38.0,30.13,South,173,0.0,0.0,97,0.00,FEW,,0.24,0.0,WeatherDisplay:10.37,2013-03-08 06:57:00,
2013-03-07 23:02:00,38.8,38.0,30.13,South,174,0.0,0.0,97,0.00,FEW,,0.24,0.0,WeatherDisplay:10.37,2013-03-08 07:02:00,
2013-03-07 23:07:00,38.5,37.7,30.13,South,174,0.0,0.0,97,0.00,FEW,,0.24,0.0,WeatherDisplay:10.37,2013-03-08 07:07:00,
2013-03-07 23:12:00,38.3,37.5,30.13,South,174,0.0,0.0,97,0.00,FEW,,0.24,0.0,WeatherDisplay:10.37,2013-03-08 07:12:00,
2013-03-07 23:17:00,38.2,37.4,30.13,South,173,0.0,0.0,97,0.00,FEW,,0.24,0.0,WeatherDisplay:10.37,2013-03-08 07:17:00,
2013-03-07 23:22:00,38.0,37.2,30.13,South,174,0.0,0.0,97,0.00,FEW,,0.24,0.0,WeatherDisplay:10.37,2013-03-08 07:22:00,
2013-03-07 23:27:00,37.9,37.1,30.12,South,174,0.0,0.0,97,0.00,FEW,,0.24,0.0,WeatherDisplay:10.37,2013-03-08 07:27:00,
2013-03-07 23:32:00,37.8,37.0,30.12,South,173,0.0,0.0,97,0.00,FEW,,0.24,0.0,WeatherDisplay:10.37,2013-03-08 07:32:00,
2013-03-07 23:37:00,37.7,36.9,30.13,South,173,0.0,0.0,97,0.00,FEW,,0.24,0.0,WeatherDisplay:10.37,2013-03-08 07:37:00,
2013-03-07 23:42:00,37.7,36.9,30.13,South,174,0.0,0.0,97,0.00,FEW,,0.24,0.0,WeatherDisplay:10.37,2013-03-08 07:42:00,
2013-03-07 23:47:00,37.7,36.9,30.13,South,174,0.0,0.0,97,0.00,FEW,,0.24,0.0,WeatherDisplay:10.37,2013-03-08 07:47:00,
2013-03-07 23:52:00,37.5,36.7,30.12,South,174,0.0,0.0,97,0.00,FEW,,0.24,0.0,WeatherDisplay:10.37,2013-03-08 07:52:00,
2013-03-07 23:57:00,37.3,36.5,30.13,South,174,0.0,0.0,97,0.00,FEW,,0.24,0.0,WeatherDisplay:10.37,2013-03-08 07:57:00,